ATLAS 28E R/B

Satellite information

Favourite Embed

Satellite Type and Status

ROCKET BODYIN ORBIT

Key statistics

Satellite ATLAS 28E R/B at a glance.

Uptime

12872

Days in orbit

Revolutions

≈ 14.8

Per day

Orbit

LEO

Low Earth Orbit

Inclination

89.9

Latest

Satellite identification and parameters

Extended collection of information and parameters for ATLAS 28E R/B.

Object identification

Identified? True

Debris? False

Object name: ATLAS 28E R/B

International designator: 1990-031D

Object number (NORAD): 20563

Object ID (CCSDS): 20563

Country: UNITED STATES OF AMERICA (US)

Current information (Y/N): Y

RCS size: MEDIUM

Orbital parameters

Period: 97.341 minutes

Inclination: 89.8621 deg

SMA: 7009.571 km

Apoapsis: 672.073 km

Periapsis: 590.798 km

RAAN: 262.3404 deg

Eccentricy: 0.0057974

Argument of periapsis: 333.4187 deg

Mean anomaly: 26.4065 deg

Mean motion: 14.79331964 rev/day

Mean motion (dot): 0.00000685 rev/day2

B* drag term: 0.000087297 1/REarth

Two-line elements (TLE)

Creation date: July 8, 2025, 2:27 a.m.

Reference frame: TEME

Reference center: EARTH

Epoch: July 7, 2025, 6:21 p.m. UTC

TLE line 0: 0 ATLAS 28E R/B

TLE line 1: 1 20563U 90031D 25188.76464085 .00000685 00000-0 87297-4 0 9999

TLE line 2: 2 20563 89.8621 262.3404 0057974 333.4187 26.4065 14.79331964319614

Live tracking on map

Real-time ground track for satellite ATLAS 28E R/B.

In-orbit conjunctions

A list of the most updated potential collisions computed for object ATLAS 28E R/B.

Target Orbit TCA Probability of collision Miss distance Type
CZ-6A DEB SSO 2025-06-09 06:30:49 0.0001468164 342.0 (m) DEBRIS
COSMOS 2228 LEO 2024-07-22 22:34:21 0.0003280314 333.0 (m) PAYLOAD

Associated space launch

POGS & SSR was a satellite designed to measure the Earth's magnetic field. TEX and SCE studied ionospheric effects on RF transmissions.

ATLAS 28E R/B was lifted into orbit during the mission ‘Atlas E Altair | POGS & SSR, TEX, SCE’, on board a Atlas E Altair space rocket.

The launch took place on April 11, 1990, 3 p.m. from Space Launch Complex 3W.

For more information about the launch, click the button.

Launch to space Atlas E Altair | POGS & SSR, TEX, SCE
Atlas E Altair | POGS & SSR, TEX, SCE

Agency: N/A

Status: Launch Successful

Launch date: April 11, 1990, 3 p.m. UTC

Rocket: Atlas E Altair

Launch pad: Space Launch Complex 3W

Location: Vandenberg SFB, CA, USA

...

Latest news about this satellite

There are no fresh news available about this satellite. Check back as we update our databases every day.


Newsletter sign-up

Weekly statistics, charts and insights to help you stay on top of the space industry.